STARLINK-35670, 66480

Orbit data source: Space-Track

STARLINK-35670, 66480 is a payload satellite owned by SpaceX/Seattle (US) in LEO that was launched on Sat, 15 Nov 2025 UTC via an FALCON 9 launch vehicle from the Air Force Eastern Test Range (AFETR). Payload-class satellites include a variety of spacecraft equipped with specific instruments for various scientific and technological missions. These include communications satellites like Starlink; space stations such as the ISS; scientific satellites like the Hubble; Earth observation satellites from companies like Planet Labs, Umbra, and HawkEye 360; GPS; miniature CubeSats for education and research; and military/defense satellites.

Loading next visibility...
Identifier
66480, 2025-262AA
Orbit
LEO
Country
Flag of USUS
Related business
Manufacturer
SpaceX/Seattle
Mission
Operational Commercial Communications
Bus & Motor
STARLINK V2MO, Unknown motor
Mass
575 kg wet, ~530 kg dry
Launch date (UTC)
2025-11-15 (7 months ago)
Launch vehicle
FALCON 9
Launch site
Air Force Eastern Test Range (AFETR)
Object type
Payload
Rocket body
Debris
Shape & HBR
Box + 2 Pan, 17.7 m
Radar Cross Section
36.964 m², Large (>1 m²)

Expand to show TLE details & history
Last TLE update: 19 hours ago

TLE from 19 hours ago
0 STARLINK-35670
1 66480U 25262AA  26171.07683649  .00014727  00000-0  54329-3 0  9998
2 66480  43.0025  78.0693 0001487 270.8509  89.2172 15.27599732 34561
Epoch: 2026-06-20T01:50Z
TLE epoch observation values (Epoch: 2026-06-20T01:50:38.672Z)
Latitude
-0.00005°
Longitude
142.11147°
Altitude
482.752 km
Speed
7.626 km/s
True Right ascension
05h 12m 16s
True Declination
0° 00' 00"
Sunlit
Object was in daylight at epoch
Visualization orbit readout
Latitude
Unknown
Longitude
Unknown
Altitude
Unknown
Speed
Unknown
Apparent Right ascension
Unknown
Apparent Declination
Unknown
Sunlit
N/A
Visualization observer readout
Local Sidereal Time
07:17:08
Azimuth
Unknown
Elevation
Unknown
Doppler factor
Unknown
Orbital elements
Apogee altitude
485.955 km
Perigee altitude
483.914 km
Semi-major axis
6,863.072 km
Eccentricity
0.00015
Inclination
43.0025°
RAAN
78.0693°
Arg. of periapsis
270.8509°
True anomaly
89.23424°
Mean anomaly
89.2172°
Eccentric anomaly
89.22572°
Mean motion
3.81738 °/min
Orbital period
94.31 mins
BSTAR
0.00054329
Loading maneuver chart data...
Computing Atmospheric mass density...
Loading historical data...
Loading historical data...
Loading historical data...
Loading historical data...
Loading historical data...
Loading historical data...
Loading historical data...

Documentation

Showing up to 5 results
|